This is the latest recevied weather packets stored in our database for station/object IR3AS. If no packets are shown the sender has not sent any weather packets the latest 1 day(s).
| Time | Temp. | Humidity | Pressure | Rain* | Wind** | Luminosity | Snow |
|---|---|---|---|---|---|---|---|
| 1836274815 | 14.44° C | 44% | 872.7 hPa | 0 mm | 0 m/s | - | - |
| 1836274749 | 14.44° C | 44% | 872.7 hPa | 0 mm | 0 m/s | - | - |
| 1836274508 | 14.44° C | 44% | 872.7 hPa | 0 mm | 0 m/s | - | - |
| 1836274474 | 14.44° C | 44% | 872.7 hPa | 0 mm | 0 m/s | - | - |
| 1836274449 | 14.44° C | 44% | 872.8 hPa | 0 mm | 0 m/s | - | - |
| 1836274377 | 14.44° C | 44% | 872.7 hPa | 0 mm | 0.45 m/s, 45° | - | - |
| 1836274299 | 14.44° C | 44% | 872.7 hPa | 0 mm | 0.45 m/s, 45° | - | - |
| 1836274259 | 14.44° C | 44% | 872.9 hPa | 0 mm | 0 m/s | - | - |
| 1836274149 | 14.44° C | 44% | 872.9 hPa | 0 mm | 0 m/s | - | - |
| 1778005550 | 3.33° C | 93% | 850 hPa | 0 mm | 0 m/s | - | - |
| 1778005250 | 3.33° C | 93% | 849.9 hPa | 0 mm | 1.34 m/s, 45° | - | - |
| 1778004950 | 3.33° C | 93% | 849.7 hPa | 0 mm | 1.34 m/s, 315° | - | - |
| 1778004650 | 3.33° C | 93% | 849.8 hPa | 0 mm | 2.68 m/s, 315° | - | - |
| 1778004350 | 3.33° C | 93% | 850.1 hPa | 0 mm | 3.13 m/s, 22° | - | - |
| 1778004051 | 2.78° C | 93% | 850 hPa | 0 mm | 2.68 m/s, 292° | - | - |
| 1778003750 | 2.78° C | 93% | 849.6 hPa | 0 mm | 2.24 m/s, 315° | - | - |
| 1778003450 | 2.78° C | 93% | 849.6 hPa | 0 mm | 2.24 m/s, 315° | - | - |
| 1778003150 | 2.78° C | 93% | 849.6 hPa | 0 mm | 0.45 m/s, 292° | - | - |
| 1778002851 | 2.78° C | 93% | 849.7 hPa | 0 mm | 0 m/s | - | - |
| 1778002550 | 2.78° C | 93% | 849.6 hPa | 0 mm | 0.45 m/s, 315° | - | - |
| 1778002250 | 2.78° C | 92% | 849.8 hPa | 0 mm | 2.24 m/s, 315° | - | - |
| 1778001950 | 2.78° C | 92% | 850 hPa | 0 mm | 0.45 m/s, 315° | - | - |
| 1778001650 | 2.78° C | 92% | 850 hPa | 0 mm | 1.34 m/s, 315° | - | - |
| 1778001351 | 2.78° C | 92% | 850.2 hPa | 0 mm | 2.68 m/s, 315° | - | - |
| 1778001050 | 2.78° C | 92% | 850.3 hPa | 0 mm | 2.24 m/s, 315° | - | - |
* Rain latest hour (hover to see other rain measurements)
** Current wind speed in m/s (hover to see current wind gust speed)